FENGYUN 1C DEB

Satellite information

Favourite Embed

Satellite Type and Status

DEBRISIN ORBIT

Key statistics

Satellite FENGYUN 1C DEB at a glance.

Uptime

9496

Days in orbit

Revolutions

≈ 14.1

Per day

Orbit

SSO

Sun Synchronous Orbit

Inclination

98.7

Latest

Satellite identification and parameters

Extended collection of information and parameters for FENGYUN 1C DEB.

Object identification

Identified? True

Debris? True

Object name: FENGYUN 1C DEB

International designator: 1999-025BKD

Object number (NORAD): 31199

Object ID (CCSDS): 31199

Country: PEOPLES REPUBLIC OF CHINA (PRC)

Current information (Y/N): Y

RCS size: SMALL

Orbital parameters

Period: 102.141 minutes

Inclination: 98.6959 deg

SMA: 7238.159 km

Apoapsis: 906.889 km

Periapsis: 813.16 km

RAAN: 116.8499 deg

Eccentricy: 0.0064746

Argument of periapsis: 161.3247 deg

Mean anomaly: 231.4755 deg

Mean motion: 14.09809845 rev/day

Mean motion (dot): 0.00000418 rev/day2

B* drag term: 0.0002565 1/REarth

Two-line elements (TLE)

Creation date: May 7, 2025, 6:56 a.m.

Reference frame: TEME

Reference center: EARTH

Epoch: May 6, 2025, 10:01 p.m. UTC

TLE line 0: 0 FENGYUN 1C DEB

TLE line 1: 1 31199U 99025BKD 25126.91798139 .00000418 00000-0 25650-3 0 9995

TLE line 2: 2 31199 98.6959 116.8499 0064746 161.3247 231.4755 14.09809845931042

Live tracking on map

Real-time ground track for satellite FENGYUN 1C DEB.

In-orbit conjunctions

A list of the most updated potential collisions computed for object FENGYUN 1C DEB.

Target Orbit TCA Probability of collision Miss distance Type
SL-3 R/B LEO 2025-04-01 12:20:49 0.0003022806 147.0 (m) ROCKET BODY

Associated space launch

Chinese polar orbiting meteorological satellite

FENGYUN 1C DEB was lifted into orbit during the mission ‘Long March 4B | Feng Yun 1C’, on board a Long March 4B space rocket.

The launch took place on May 10, 1999, 1:33 a.m. from Launch Complex 7.

For more information about the launch, click the button.

Launch to space Long March 4B | Feng Yun 1C
Long March 4B | Feng Yun 1C

Agency: N/A

Status: Launch Successful

Launch date: May 10, 1999, 1:33 a.m. UTC

Rocket: Long March 4B

Launch pad: Launch Complex 7

Location: Taiyuan Satellite Launch Center, People's Republic of China

...

Latest news about this satellite

There are no fresh news available about this satellite. Check back as we update our databases every day.


Newsletter sign-up

Weekly statistics, charts and insights to help you stay on top of the space industry.